This is the latest recevied weather packets stored in our database for station/object VK3BYD-3. If no packets are shown the sender has not sent any weather packets the latest 10 day(s).
| Time | Temp. | Humidity | Pressure | Rain* | Wind** | Luminosity | Snow |
|---|---|---|---|---|---|---|---|
| 1777835764 | 10.56° C | 98% | 1013.8 hPa | 0 mm | - | - | - |
| 1777834869 | 10.56° C | 98% | 1014.1 hPa | 0 mm | - | - | - |
| 1777833963 | 10° C | 98% | 1014.2 hPa | 0 mm | - | - | - |
| 1777833060 | 10° C | 98% | 1014.3 hPa | 0 mm | - | - | - |
| 1777832160 | 10° C | 99% | 1014.4 hPa | 0 mm | - | - | - |
| 1777831256 | 9.44° C | 99% | 1014.3 hPa | 0 mm | - | - | - |
| 1777830357 | 8.89° C | 98% | 1014.3 hPa | 0 mm | - | - | - |
| 1777829458 | 8.33° C | 97% | 1014.3 hPa | 0 mm | - | - | - |
| 1777828555 | 8.89° C | 98% | 1014 hPa | 0 mm | - | - | - |
| 1777827657 | 9.44° C | 98% | 1014.2 hPa | 0 mm | - | - | - |
| 1777826755 | 9.44° C | 97% | 1014.2 hPa | 0 mm | - | - | - |
| 1777825855 | 10° C | 97% | 1014.5 hPa | 0 mm | - | - | - |
| 1777824954 | 10° C | 97% | 1014.2 hPa | 0 mm | - | - | - |
| 1777824056 | 10.56° C | 97% | 1014.2 hPa | 0.25 mm | - | - | - |
| 1777823155 | 11.11° C | 97% | 1013.7 hPa | 0.25 mm | - | - | - |
| 1777822255 | 11.67° C | 97% | 1014.2 hPa | 0.51 mm | - | - | - |
| 1777821354 | 11.67° C | 97% | 1014.4 hPa | 0.51 mm | - | - | - |
| 1777820455 | 11.67° C | 97% | 1014.1 hPa | 0.51 mm | - | - | - |
| 1777819556 | 12.22° C | 97% | 1014.1 hPa | 0.51 mm | - | - | - |
| 1777818653 | 12.22° C | 97% | 1014.4 hPa | 0.51 mm | - | - | - |
| 1777817753 | 12.22° C | 97% | 1014.9 hPa | 1.02 mm | - | - | - |
| 1777816851 | 12.22° C | 97% | 1015.2 hPa | 1.27 mm | - | - | - |
| 1777815951 | 12.22° C | 97% | 1015.2 hPa | 1.52 mm | - | - | - |
| 1777815050 | 12.22° C | 97% | 1015.4 hPa | 2.03 mm | - | - | - |
| 1777814148 | 12.22° C | 96% | 1015.2 hPa | 2.29 mm | - | - | - |
* Rain latest hour (hover to see other rain measurements)
** Current wind speed in m/s (hover to see current wind gust speed)